MICRODRAGON (43935 NORAD) Tracking and Keplerian Element Data

This shows tracking and keplerian element data for the satellite.

Feedback or suggestion? Click here.




ElementValue
Catalog43935
NameMICRODRAGON
Epoch Orbit452
Epoch Day47.82099597
Epoch Year2019
RAAN109.2358
Inclination97.3005
Eccentricity0.0019414
Argument of Perigee142.0027
Mean Anonmoly355.9481
Mean Motion15.21868941
Decay Rate6.74E-06
L11 43935U 19003D 19047.82099597 .00000674 00000-0 32487-4 0 9992
L22 43935 97.3005 109.2358 0019414 142.0027 355.9481 15.21868941 4524

Live tracking and technical data element details for MICRODRAGON (NORAD 43935). MICRODRAGON can be tracked NOW for your location showing map with azimuth and elevation plus other details from your city location.

Track the satellite on the map from your city or location and see movement details for azimuth, elevation, latitude, longitude, range, height, and movement on the map or in text.







IsCatalogInMostPopularTable: catalog: 43935, numindb: 10
Update: records affected: 1



GetName: 43935 MICRODRAGON

Hit Count: updated at: Thu, 21 Feb 2019 12:12:28 GMT